DW3212 Weather Reports


time (UTC)temp
C
wind
direction
speed
KPH
gust
KPH
rain 1hr
cm
rain 24hr
cm
rain mn
cm
humidity
%
barometer
mb
20260831080137 14 0.0 0.0 0.00 0.00 0.00 90 1020.1
20260831074607 14 0.0 0.0 0.00 0.00 0.00 90 1020.0
20260831073116 15 0.0 0.0 0.00 0.00 0.00 90 1020.0
20260831071600 15 0.0 0.0 0.00 0.00 0.00 90 1020.1
20260831070104 15 0.0 0.0 0.00 0.00 0.00 91 1020.0
20260831064607 15 0.0 0.0 0.00 0.00 0.00 91 1019.9
20260831063106 15 0.0 0.0 0.00 0.00 0.00 91 1019.9
20260831061605 15 0.0 0.0 0.00 0.00 0.00 91 1020.0
20260831060100 15 0.0 0.0 0.00 0.00 0.00 91 1020.0
20260831054606 15 0.0 0.0 0.00 0.00 0.00 90 1019.9
20260831053103 15 0.0 0.0 0.00 0.00 0.00 89 1019.9
20260831051600 15 0.0 0.0 0.00 0.00 0.00 89 1019.7
20260831050058 15 0.0 0.0 0.00 0.00 0.00 90 1019.6
20260831044606 15 0.0 0.0 0.00 0.00 0.00 89 1019.7
20260831043103 15 0.0 0.0 0.00 0.00 0.00 89 1019.6
20260831041610 15 0.0 0.0 0.00 0.00 0.00 88 1019.4
20260831040110 15 0.0 0.0 0.00 0.00 0.00 88 1019.7
20260831034612 15 0.0 0.0 0.00 0.00 0.00 88 1019.7
20260831033107 15 0.0 0.0 0.00 0.00 0.00 89 1019.7
20260831031602 15 0.0 0.0 0.00 0.00 0.00 88 1019.7
20260831030103 15 0.0 0.0 0.00 0.00 0.00 89 1020.0
20260831024607 15 0.0 0.0 0.00 0.00 0.00 89 1020.1
20260831023100 15 0.0 0.0 0.00 0.00 0.00 89 1019.9
20260831021600 15 0.0 0.0 0.00 0.00 0.00 89 1019.6
20260831020104 16 0.0 0.0 0.00 0.00 0.00 88 1019.6
20260831014600 16 0.0 0.0 0.00 0.00 0.00 87 1019.7
20260831013111 16 0.0 0.0 0.00 0.00 0.00 87 1019.3
20260831011559 16 0.0 0.0 0.00 0.00 0.00 87 1019.5
20260831010123 16 0.0 0.0 0.00 0.00 0.00 86 1019.4
20260831004611 16 0.0 0.0 0.00 0.00 0.00 86 1019.2
20260831003107 16 0.0 0.0 0.00 0.00 0.00 86 1018.6
20260831001600 16 0.0 0.0 0.00 0.00 0.00 86 1018.3
20260831000103 16 0.0 0.0 0.00 0.00 0.00 85 1018.3
20260830234600 16 0.0 0.0 0.00 0.00 0.00 86 1018.2
20260830233102 16 0.0 0.0 0.00 0.00 0.00 85 1018.3
20260830231604 16 0.0 0.0 0.00 0.00 0.00 84 1018.7
20260830230103 17 0.0 0.0 0.00 0.00 0.00 84 1018.7
20260830224608 18 0.0 0.0 0.00 0.00 0.00 82 1018.6
20260830223105 18 0.0 0.0 0.00 0.00 0.00 83 1018.6
20260830221600 18 0.0 0.0 0.00 0.00 0.00 81 1018.4
20260830220104 18 0.0 0.0 0.00 0.00 0.00 79 1018.4
20260830214600 19 0.0 0.0 0.00 0.00 0.00 78 1018.6
20260830213059 19 0.0 0.0 0.00 0.00 0.00 78 1018.4
20260830211558 19 0.0 0.0 0.00 0.00 0.00 78 1018.5
20260830210100 20 0.0 0.0 0.00 0.00 0.00 76 1018.6
20260830204604 20 0.0 0.0 0.00 0.00 0.00 74 1018.8
20260830203101 20 0.0 0.0 0.00 0.00 0.00 74 1018.8
20260830201601 20 0.0 0.0 0.00 0.00 0.00 75 1018.7
20260830200105 20 0.0 0.0 0.00 0.00 0.00 74 1019.0
20260830194613 20 0.0 0.0 0.00 0.00 0.00 74 1018.9
20260830193106 20 0.0 0.0 0.00 0.00 0.00 72 1019.2
20260830191604 21 0.0 0.0 0.00 0.00 0.00 69 1019.3
20260830184603 21 0.0 0.0 0.00 0.00 0.00 68 1019.5
20260830183100 21 0.0 0.0 0.00 0.00 0.00 67 1019.7
20260830181606 22 0.0 0.0 0.00 0.00 0.00 64 1020.0
20260830180107 21 0.0 0.0 0.00 0.00 0.00 65 1020.0
20260830174639 22 0.0 0.0 0.00 0.00 0.00 61 1020.1
20260830173108 22 0.0 0.0 0.00 0.00 0.00 62 1020.2
20260830171614 22 0.0 0.0 0.00 0.00 0.00 63 1020.2
20260830170104 22 0.0 0.0 0.00 0.00 0.00 62 1020.3
20260830164604 21 0.0 0.0 0.00 0.00 0.00 58 1020.4
20260830163107 21 0.0 0.0 0.00 0.00 0.00 63 1020.7
20260830161617 20 0.0 0.0 0.00 0.00 0.00 68 1020.7
20260830160105 20 0.0 0.0 0.00 0.00 0.00 66 1020.8
20260830154558 20 0.0 0.0 0.00 0.00 0.00 68 1021.0
20260830153105 18 0.0 0.0 0.00 0.00 0.00 68 1021.2
20260830151600 18 0.0 0.0 0.00 0.00 0.00 70 1021.4
20260830150108 18 0.0 0.0 0.00 0.00 0.00 71 1021.4
20260830144606 17 0.0 0.0 0.00 0.00 0.00 68 1021.3
20260830143106 17 0.0 0.0 0.00 0.00 0.00 70 1021.1
20260830141558 17 0.0 0.0 0.00 0.00 0.00 72 1021.6
20260830140115 17 0.0 0.0 0.00 0.00 0.00 71 1021.5
20260830134607 17 0.0 0.0 0.00 0.00 0.00 71 1021.5
20260830133106 17 0.0 0.0 0.00 0.00 0.00 70 1021.5
20260830131612 17 0.0 0.0 0.00 0.00 0.00 72 1021.6
20260830130106 17 0.0 0.0 0.00 0.00 0.00 69 1021.6
20260830124600 17 0.0 0.0 0.00 0.00 0.00 71 1021.6
20260830123059 16 0.0 0.0 0.00 0.00 0.00 73 1021.6
20260830121603 16 0.0 0.0 0.00 0.00 0.00 72 1021.6
20260830120110 16 0.0 0.0 0.00 0.00 0.00 73 1021.6
20260830114603 16 0.0 0.0 0.00 0.00 0.00 74 1021.7
20260830113058 16 0.0 0.0 0.00 0.00 0.00 71 1021.8
20260830111604 16 0.0 0.0 0.00 0.00 0.00 71 1021.8
20260830110059 16 0.0 0.0 0.00 0.00 0.00 72 1021.8
20260830104605 16 0.0 0.0 0.00 0.00 0.00 72 1021.9
20260830103106 16 0.0 0.0 0.00 0.00 0.00 73 1022.0
20260830101608 16 0.0 0.0 0.00 0.00 0.00 74 1021.8
20260830094628 16 0.0 0.0 0.00 0.00 0.00 72 1021.9
20260830093105 16 0.0 0.0 0.00 0.00 0.00 72 1022.0
20260830091601 16 0.0 0.0 0.00 0.00 0.00 71 1022.1
20260830090107 16 0.0 0.0 0.00 0.00 0.00 72 1022.1
20260830084608 16 0.0 0.0 0.00 0.00 0.00 72 1022.1
20260830083121 16 0.0 0.0 0.00 0.00 0.00 71 1021.9
20260830081605 16 0.0 0.0 0.00 0.00 0.00 71 1022.0